• Join FlightAware (Why Join?)
  • Login
  • US Flag 
01:47AM EDT


 

Airport Tracker/Info


-or-


 

Live Flight TrackerFlight Track Log ✈ DAL6048 ✈ 13-Apr-2013 ✈ KMHT - KLGA

Flight Track Log - Related Links

Times and Time Zones

All times are in EDT time to prevent confusion due to time zone crossing. See the DAL6048 flight status page for this flight to view local times or setup timezone preferences in your user account.

Time Position Orientation Groundspeed Altitude Reporting Facility
EDT Latitude Longitude Course Direction KTS MPH feet Rate Location/Type
09:20AM 42.9500 -71.4167 North 161 185 900  Level KA90
09:21AM 43.0086 -71.4122 North 195 224 4,400 2,280 Climbing Boston Center
09:22AM 43.0342 -71.4800 297° West 160 184 6,600 2,220 Climbing Boston Center
09:23AM 43.0264 -71.5683 263° West 200 230 8,900 2,100 Climbing Boston Center
09:25AM 43.0208 -71.6592 265° West 227 261 10,900 1,740 Climbing Boston Center
09:26AM 43.0111 -71.7614 263° West 264 304 12,500 1,740 Climbing Boston Center
09:27AM 43.0056 -71.8667 266° West 280 322 14,400 1,680 Climbing Boston Center
09:28AM 42.9872 -71.9689 256° West 285 328 15,900 780 Climbing Boston Center
09:28AM 42.9311 -72.0489 226° Southwest 290 334 16,000  Climbing Boston Center
09:29AM 42.8606 -72.1483 226° Southwest 336 387 16,000  Level Boston Center
09:30AM 42.8003 -72.2364 227° Southwest 350 403 16,000  Level Boston Center
09:32AM 42.7358 -72.3328 228° Southwest 350 403 16,000  Level Boston Center
09:33AM 42.6692 -72.4289 227° Southwest 350 403 16,000  Level Boston Center
09:33AM 42.6025 -72.5219 226° Southwest 350 403 16,000  Level Boston Center
09:35AM 42.5358 -72.6175 227° Southwest 350 403 16,000  Level Boston Center
09:36AM 42.4522 -72.7103 219° Southwest 345 397 16,000  Level Boston Center
09:36AM 42.3894 -72.7858 222° Southwest 345 397 16,000  Level Boston Center
09:38AM 42.3078 -72.8864 222° Southwest 351 404 16,000  Level Boston Center
09:38AM 42.2386 -72.9617 219° Southwest 357 411 16,000 -120 Level Boston Center
09:39AM 42.1592 -73.0564 221° Southwest 357 411 15,800 -600 Descending Boston Center
09:40AM 42.0939 -73.1311 220° Southwest 357 411 14,900 -900 Descending Boston Center
09:41AM 42.0142 -73.2281 222° Southwest 357 411 14,000 -480 Descending Boston Center
09:43AM 41.9489 -73.3025 220° Southwest 357 411 14,000  Level Boston Center
09:43AM 41.8756 -73.3853 220° Southwest 358 412 14,100  Climbing Boston Center
09:44AM 41.7975 -73.4733 220° Southwest 353 406 14,100  Level Boston Center
09:45AM 41.7322 -73.5444 219° Southwest 353 406 14,100  Level Boston Center
09:46AM 41.6564 -73.6347 222° Southwest 342 394 14,100 -420 Level Boston Center
09:47AM 41.6167 -73.6667 211° Southwest 335 386 13,500 -1,620 Descending New York TRACON
09:48AM 41.5500 -73.7333 217° Southwest 337 388 11,700 -1,680 Descending New York TRACON
09:50AM 41.4452 -73.8381 217° Southwest  Level FlightAware Approximate
09:51AM 41.3167 -73.7667 217° Southwest 279 321 7,000  Level New York TRACON
09:52AM 41.2500 -73.7167 151° Southeast 279 321 5,200 -1,140 Descending New York TRACON
09:53AM 41.1833 -73.6500 143° Southeast 273 314 4,800 -360 Descending New York TRACON
09:55AM 41.1112 -73.5945 143° Southeast  Level FlightAware Approximate
09:56AM 40.9833 -73.5833 143° Southeast 270 311 4,000  Level New York TRACON
09:58AM 40.9226 -73.6689 217° Southwest  Level Estimated
09:59AM 40.8000 -73.7167 217° Southwest 229 264 4,000  Level New York TRACON
10:00AM 40.8000 -73.7833 270° West 202 232 4,000  Level New York TRACON
10:01AM 40.7833 -73.8500 252° West 177 204 4,000  Level New York TRACON
10:02AM 40.7667 -73.9000 246° West 180 207 4,000  Level New York TRACON
10:04AM 40.7167 -74.0167 241° Southwest 197 227 4,000  Level New York TRACON
10:05AM 40.6667 -74.0667 217° Southwest 194 223 4,000 -300 Level New York TRACON
10:07AM 40.6167 -74.0333 153° Southeast 210 242 3,100 -480 Descending New York TRACON